Temp
10 10 10 9 9 9 9 9 9 9 8 8 8 8 9 8 8 8 8 8 8 8 8 8 8 8 9 9 9 8 8 8 8 8 8 7 7 7 7 7 7 7 7
10 10 10 9 9 9 9 9 9 9 9 8 8 8 8 9 9 9 8 8 8 8 8 8 8 9 9 9 9 9 8 7 7 7 7 7 7 7 7 7 7 7 7
10 10 10 9 9 9 9 9 9 8 8 8 8 8 8 8 9 9 9 9 8 8 8 8 8 8 8 8 8 8 8 8 7 8 8 7 7 7 7 7 7 7 7
10 10 10 9 9 9 9 9 8 8 8 8 8 8 8 8 8 8 8 8 9 8 8 8 8 8 8 8 8 8 8 8 8 8 6 5 7 7 7 7 7 7 7
10 10 9 9 9 9 9 9 8 8 8 8 8 8 8 8 8 8 8 8 8 8 8 8 8 9 9 8 8 8 8 8 8 8 8 8 8 8 8 8 8 7 7
10 9 9 9 9 9 9 8 8 8 8 8 8 8 8 8 8 8 8 8 8 8 8 8 8 8 8 8 8 8 8 8 8 8 8 8 8 8 8 8 8 7 7
10 9 9 9 8 8 8 8 8 8 8 8 8 8 8 8 8 8 8 8 8 8 8 9 9 8 8 8 8 8 8 8 8 8 8 8 8 8 8 8 8 8 8
9 9 9 9 8 8 8 8 8 8 8 8 8 8 8 8 8 8 8 8 8 8 8 8 8 8 8 8 8 8 8 8 8 8 8 8 8 8 8 8 8 8 8
9 9 9 9 8 8 8 8 8 8 8 8 8 8 8 8 8 8 8 8 8 8 8 8 8 8 8 8 8 7 8 8 8 8 8 8 8 8 8 8 8 8 8
9 9 9 9 8 8 8 9 8 8 8 8 8 8 8 8 8 8 8 8 8 8 8 8 8 8 8 8 8 8 8 8 8 8 8 8 8 8 8 8 8 8 8
9 9 9 9 9 8 8 9 8 8 8 8 8 7 7 8 8 8 8 8 8 8 8 8 8 8 8 8 8 8 8 8 7 7 7 8 8 8 8 8 8 8 8
9 9 9 9 9 8 9 9 8 8 8 7 7 7 7 8 8 8 8 8 8 8 8 8 8 8 8 8 8 8 8 8 8 8 8 8 8 8 8 8 8 8 8
9 9 9 9 9 9 9 9 9 9 8 7 7 8 8 8 8 8 8 8 8 8 8 8 8 8 8 8 8 8 8 8 8 8 8 8 8 7 7 8 7 7 8
8 8 9 9 9 9 9 8 9 9 8 7 7 8 8 8 8 8 8 8 8 8 8 8 9 9 9 9 8 8 8 8 8 8 8 8 8 8 8 8 7 7 7
8 8 9 9 9 9 8 8 9 9 8 8 8 8 8 8 8 8 8 8 8 8 8 8 9 9 9 9 9 9 8 8 8 9 8 8 8 8 8 8 8 8 8
8 8 8 9 9 8 8 8 8 8 8 8 8 7 8 8 8 8 8 8 8 8 9 9 9 9 9 9 9 9 9 9 9 9 9 8 8 8 8 8 8 8 8
8 8 8 8 9 8 9 9 9 8 8 8 8 7 8 8 8 8 8 8 8 8 9 9 9 9 10 10 9 9 9 9 9 9 9 8 8 8 8 8 8 8 8
8 8 8 8 8 8 9 9 9 8 8 8 7 8 7 8 8 8 8 8 9 9 9 9 9 9 9 9 9 9 10 10 9 9 9 9 9 8 9 8 8 8 8
8 8 8 8 9 9 9 9 9 8 8 8 8 8 8 9 9 8 8 9 9 9 9 9 9 9 9 9 9 9 9 10 10 10 10 9 9 9 9 8 8 8 8
9 9 9 9 9 9 9 9 9 9 9 9 9 9 9 9 10 9 9 9 9 9 9 9 9 9 9 9 9 9 9 9 9 9 10 10 9 9 9 9 9 9 8
9 10 9 10 10 10 10 10 9 9 9 9 9 9 10 10 9 9 10 9 10 10 10 10 10 9 9 9 9 9 10 9 9 9 9 9 10 10 9 9 9 9 9
10 11 10 11 10 10 10 10 10 9 9 9 9 10 10 9 9 9 9 9 9 10 11 10 10 10 10 10 10 10 9 9 9 9 9 9 9 9 10 10 9 9 9
11 11 11 10 10 10 10 10 10 10 9 9 10 10 10 10 10 10 10 10 10 10 10 10 11 11 10 10 10 10 9 9 10 9 10 9 9 9 9 9 10 10 9
11 11 11 11 11 11 11 10 10 10 10 9 10 10 10 10 10 10 10 10 10 10 10 10 10 10 10 10 10 9 11 10 9 8 9 9 9 9 9 10 10 9 9
11 11 11 11 11 10 10 10 10 10 10 10 10 10 10 10 10 10 10 10 10 10 10 10 10 10 10 10 10 10 9 10 10 10 8 9 9 8 9 9 9 9 9
11 11 11 11 11 11 11 11 10 9 10 11 10 10 10 10 10 11 11 10 10 10 10 10 10 10 10 10 10 10 9 9 8 8 7 8 8 9 7 9 9 9 9
Height
3187 3189 3191 3192 3194 3195 3196 3197 3197 3197 3197 3196 3196 3196 3196 3196 3196 3196 3196 3196 3197 3197 3197 3198 3198 3198 3199 3199 3198 3199 3200 3200 3200 3200 3200 3200 3201 3201 3203 3203 3204 3205 3206
3190 3191 3193 3195 3196 3197 3198 3198 3198 3198 3199 3199 3199 3199 3199 3198 3199 3199 3199 3199 3200 3200 3201 3201 3202 3202 3202 3203 3203 3203 3203 3203 3203 3203 3204 3204 3205 3206 3207 3207 3208 3208 3207
3192 3193 3195 3197 3198 3199 3200 3201 3201 3200 3201 3201 3201 3202 3201 3201 3201 3201 3201 3201 3202 3203 3204 3204 3204 3204 3205 3206 3206 3205 3206 3207 3208 3209 3209 3210 3210 3209 3210 3211 3211 3211 3211
3194 3196 3197 3198 3200 3201 3202 3202 3202 3203 3203 3203 3202 3203 3204 3204 3203 3204 3204 3204 3204 3205 3206 3206 3207 3207 3208 3209 3209 3209 3210 3211 3211 3212 3214 3213 3213 3213 3214 3214 3214 3214 3214
3195 3197 3199 3200 3201 3202 3203 3203 3204 3204 3205 3205 3204 3204 3205 3205 3206 3206 3206 3206 3207 3207 3208 3209 3209 3210 3210 3211 3211 3212 3212 3213 3213 3213 3214 3215 3216 3216 3217 3217 3217 3217 3217
3197 3199 3200 3202 3203 3204 3205 3205 3205 3206 3206 3206 3206 3206 3206 3206 3206 3207 3207 3208 3209 3209 3210 3211 3212 3212 3213 3214 3214 3215 3215 3215 3216 3217 3217 3218 3219 3219 3220 3220 3220 3220 3220
3199 3201 3202 3203 3204 3205 3206 3207 3207 3207 3207 3208 3208 3207 3207 3207 3208 3207 3208 3208 3210 3210 3211 3212 3213 3213 3214 3216 3216 3217 3217 3218 3218 3219 3220 3220 3221 3222 3222 3222 3222 3223 3223
3200 3202 3203 3204 3205 3206 3207 3207 3208 3208 3208 3208 3208 3208 3209 3208 3208 3208 3208 3209 3210 3211 3212 3213 3213 3215 3215 3216 3217 3218 3219 3219 3219 3221 3222 3222 3223 3224 3224 3224 3223 3224 3225
3202 3203 3205 3206 3207 3207 3208 3209 3209 3209 3209 3209 3209 3209 3209 3209 3209 3209 3209 3210 3211 3211 3212 3213 3214 3214 3216 3217 3218 3219 3220 3220 3221 3221 3222 3223 3224 3225 3225 3226 3225 3225 3226
3203 3205 3206 3208 3208 3208 3208 3209 3209 3209 3210 3209 3209 3209 3209 3209 3209 3209 3209 3210 3211 3211 3212 3213 3214 3214 3215 3217 3218 3219 3220 3221 3221 3222 3223 3223 3224 3225 3226 3226 3227 3226 3227
3205 3206 3208 3208 3209 3209 3209 3209 3210 3210 3209 3209 3208 3208 3208 3208 3208 3209 3210 3209 3210 3211 3212 3213 3214 3214 3215 3216 3217 3219 3220 3220 3221 3222 3222 3223 3224 3224 3224 3226 3226 3227 3227
3207 3207 3208 3209 3209 3209 3209 3209 3209 3210 3208 3207 3207 3206 3206 3206 3207 3207 3208 3209 3209 3210 3211 3212 3213 3214 3214 3215 3216 3217 3218 3219 3220 3221 3221 3222 3222 3223 3224 3224 3225 3226 3227
3208 3208 3209 3209 3209 3209 3209 3210 3210 3210 3209 3207 3206 3206 3207 3208 3208 3208 3208 3208 3209 3209 3210 3211 3212 3212 3213 3214 3214 3215 3217 3218 3219 3219 3219 3220 3220 3221 3222 3222 3224 3224 3225
3209 3209 3209 3209 3210 3210 3209 3210 3210 3210 3210 3208 3207 3207 3208 3208 3208 3208 3209 3208 3208 3208 3209 3209 3210 3211 3212 3213 3214 3214 3215 3216 3217 3217 3217 3217 3218 3219 3219 3220 3221 3222 3223
3209 3208 3208 3209 3210 3210 3210 3210 3210 3210 3210 3210 3210 3209 3209 3210 3209 3209 3208 3209 3208 3209 3209 3209 3210 3211 3212 3213 3214 3214 3214 3214 3215 3215 3215 3216 3216 3216 3217 3217 3218 3219 3220
3209 3208 3208 3208 3209 3210 3210 3210 3210 3210 3211 3210 3210 3210 3209 3210 3209 3209 3210 3209 3209 3209 3209 3209 3210 3210 3211 3212 3213 3213 3213 3213 3213 3214 3214 3214 3214 3215 3215 3216 3217 3217 3217
3208 3207 3207 3208 3209 3210 3210 3210 3210 3210 3211 3211 3210 3209 3208 3209 3209 3209 3210 3211 3211 3209 3209 3210 3210 3211 3211 3212 3212 3212 3212 3212 3212 3212 3213 3213 3213 3213 3214 3214 3215 3216 3215
3207 3206 3206 3207 3208 3209 3209 3210 3210 3211 3211 3212 3212 3208 3207 3209 3210 3209 3210 3211 3212 3211 3210 3211 3211 3211 3212 3212 3211 3211 3212 3212 3212 3212 3212 3212 3212 3211 3212 3213 3214 3214 3214
3205 3204 3205 3206 3207 3208 3209 3209 3210 3211 3211 3212 3212 3212 3212 3212 3211 3210 3210 3210 3211 3211 3210 3212 3212 3212 3211 3211 3211 3211 3212 3211 3211 3211 3211 3211 3210 3210 3211 3212 3212 3212 3212
3205 3204 3205 3206 3207 3208 3208 3209 3209 3211 3211 3211 3211 3211 3210 3211 3211 3211 3210 3210 3209 3209 3210 3211 3211 3211 3210 3211 3210 3211 3210 3210 3210 3210 3209 3209 3209 3209 3209 3210 3210 3210 3211
3205 3205 3205 3206 3208 3208 3208 3208 3208 3210 3210 3210 3210 3210 3210 3210 3210 3209 3209 3209 3209 3209 3209 3209 3209 3210 3210 3210 3209 3210 3210 3210 3209 3208 3208 3208 3208 3207 3208 3208 3208 3208 3209
3205 3206 3205 3207 3208 3209 3209 3209 3209 3210 3209 3209 3209 3209 3209 3209 3208 3208 3208 3208 3208 3207 3207 3207 3208 3208 3208 3208 3208 3208 3209 3209 3208 3207 3206 3206 3206 3206 3206 3206 3206 3207 3207
3205 3206 3206 3206 3208 3209 3209 3209 3209 3209 3210 3210 3209 3208 3208 3208 3207 3206 3206 3206 3206 3206 3206 3206 3207 3207 3207 3206 3207 3207 3207 3207 3206 3206 3205 3205 3205 3205 3205 3205 3205 3205 3205
3205 3206 3206 3206 3207 3207 3208 3208 3209 3208 3208 3208 3207 3207 3206 3206 3206 3206 3205 3205 3205 3205 3204 3204 3204 3204 3204 3204 3204 3203 3203 3203 3203 3206 3204 3203 3203 3203 3202 3202 3200 3202 3202
3204 3205 3206 3206 3206 3207 3207 3207 3207 3206 3205 3206 3205 3205 3204 3203 3203 3203 3203 3203 3203 3202 3202 3202 3203 3202 3201 3202 3201 3200 3200 3200 3200 3200 3201 3202 3200 3200 3199 3199 3198 3199 3199
3204 3204 3205 3206 3206 3206 3205 3205 3205 3204 3204 3204 3203 3202 3201 3200 3200 3199 3199 3198 3198 3198 3198 3198 3199 3198 3198 3198 3197 3197 3196 3197 3198 3199 3198 3198 3198 3198 3196 3195 3196 3195 3195
Wind_Speed
17 17 18 17 17 16 15 16 16 16 16 15 15 15 14 14 15 14 13 13 15 17 18 18 19 18 20 22 24 23 21 21 21 22 25 26 24 21 21 21 21 18 19
16 16 17 16 15 15 13 14 14 14 14 13 12 12 13 13 13 13 13 12 14 16 16 16 17 17 17 19 22 23 22 20 21 21 22 23 23 22 20 21 23 22 21
15 15 16 15 14 13 12 12 12 13 13 12 11 10 11 11 11 11 12 12 12 13 13 13 14 14 15 16 18 21 21 22 22 22 24 24 21 21 20 19 18 18 18
14 14 14 13 12 11 10 10 10 11 11 10 10 9 8 9 9 10 10 10 10 11 12 12 11 12 13 14 15 16 18 19 19 20 17 15 17 17 17 17 17 17 17
15 13 12 12 11 10 9 9 9 9 9 9 8 8 7 7 7 8 8 9 9 9 10 11 11 10 11 12 12 13 13 14 15 16 15 15 15 14 15 14 15 16 15
15 12 11 10 10 9 8 7 7 7 7 7 7 6 7 7 8 8 7 8 8 8 9 9 9 9 9 9 9 10 10 11 11 11 12 12 13 13 12 12 13 12 13
14 12 10 9 9 8 6 5 5 5 4 4 4 4 5 6 6 7 7 6 7 7 7 7 7 7 7 7 7 8 8 8 8 8 8 9 9 10 10 11 11 10 10
14 10 9 8 7 6 4 3 2 2 2 2 2 1 2 3 5 7 6 5 5 7 7 7 7 6 7 6 7 6 5 6 7 6 6 6 7 7 7 8 9 8 9
14 11 8 7 6 4 3 1 1 1 1 1 1 2 1 2 3 5 6 6 5 5 6 7 7 8 7 7 7 6 4 6 6 6 5 4 4 4 4 5 6 6 6
14 11 8 6 5 4 3 1 2 3 3 3 2 3 4 4 4 4 5 6 6 6 6 6 7 8 9 10 10 9 7 5 7 6 6 7 6 5 4 5 5 4 4
12 11 9 6 4 3 2 0 1 2 2 3 3 5 8 9 6 6 6 7 6 6 6 6 6 7 7 9 12 12 10 9 9 9 10 10 10 9 9 8 7 6 6
9 8 8 7 5 4 2 1 1 2 3 5 4 4 1 8 6 6 6 7 7 6 6 6 6 6 7 8 8 11 11 12 12 13 14 14 13 13 13 12 11 10 9
9 7 7 6 5 4 2 1 1 2 5 7 7 3 4 6 4 4 5 5 5 5 6 5 6 7 6 7 7 8 10 11 12 14 16 15 16 16 16 16 15 13 13
6 6 6 7 5 3 2 1 1 0 1 7 6 8 6 6 5 4 4 4 2 3 5 6 8 7 5 6 6 7 8 9 11 13 14 14 15 15 14 15 15 14 14
5 4 8 8 7 4 2 0 1 1 1 6 6 0 2 3 1 2 3 5 4 2 1 3 7 7 5 4 5 6 7 9 10 11 12 10 12 12 14 16 16 14 12
2 2 4 9 6 4 1 1 1 2 0 4 5 4 6 5 2 2 4 5 5 4 3 3 2 3 3 4 4 4 5 7 9 9 8 8 9 9 11 11 11 11 11
1 2 6 9 7 4 0 0 1 2 1 1 4 2 4 3 3 5 5 2 1 3 6 4 2 1 2 2 3 4 5 6 7 9 9 7 8 8 9 8 8 8 8
1 5 6 9 9 6 1 3 3 1 2 2 2 5 5 6 5 8 5 3 1 2 2 3 2 2 1 3 3 4 6 5 6 8 9 9 8 9 8 8 9 8 8
3 4 5 11 11 7 5 4 4 1 2 4 5 5 5 5 4 4 5 3 2 2 2 2 3 4 3 2 3 5 6 6 7 8 8 9 9 10 8 9 9 8 10
6 5 6 8 9 6 5 4 3 1 1 2 4 5 7 6 5 5 5 7 6 5 4 2 5 4 5 6 4 6 5 6 6 6 6 8 9 8 10 10 10 9 8
8 6 7 8 6 6 5 6 5 1 2 0 2 4 6 7 5 8 5 5 6 7 7 7 8 7 8 7 8 6 6 7 9 10 9 8 7 8 5 8 9 9 10
9 4 6 3 1 3 4 3 3 4 4 4 5 6 6 7 8 8 8 7 6 7 8 11 11 11 10 10 9 8 7 9 8 7 9 11 10 10 9 9 8 9 10
10 7 4 3 1 3 3 4 5 5 6 8 10 10 11 11 11 10 10 10 10 11 11 10 11 11 13 13 13 12 11 10 9 12 9 8 9 9 11 13 15 12 10
10 8 7 7 5 3 4 3 4 3 5 7 8 9 10 12 13 14 14 14 14 14 13 12 13 14 13 13 15 16 16 16 11 10 10 12 11 12 14 15 16 14 13
14 12 3 2 6 7 8 7 10 10 10 11 11 9 8 10 13 15 16 18 19 19 17 17 15 15 16 15 16 17 17 18 16 16 12 13 13 13 13 13 9 13 14
13 9 6 5 8 10 10 12 16 14 9 8 8 9 10 10 12 15 17 18 20 19 17 18 18 18 16 17 17 18 18 18 16 14 14 14 15 13 16 15 14 16 17
Wind_Direction
135 127 122 122 116 111 105 98 94 88 84 85 89 88 85 84 85 86 86 85 88 102 104 101 97 99 94 89 87 95 103 101 102 96 97 103 105 100 98 93 87 86 91
131 128 123 121 116 108 100 94 91 89 86 83 83 91 92 90 92 92 91 88 89 99 106 103 101 101 98 92 91 93 96 98 99 97 99 103 102 101 101 96 91 84 84
132 128 124 122 114 105 96 91 87 84 84 83 82 84 91 95 95 94 94 89 88 96 103 105 106 106 102 99 98 96 95 98 106 105 106 101 99 96 97 96 91 87 89
132 128 126 122 113 103 98 89 80 78 80 82 82 84 97 99 103 103 103 105 102 101 101 106 112 112 110 107 103 100 99 101 103 108 95 99 95 97 97 97 95 93 91
134 130 127 123 114 106 98 88 74 72 73 71 79 86 95 114 114 120 120 121 121 116 114 115 117 113 111 107 105 104 106 108 107 104 103 105 103 101 99 101 98 98 98
134 132 128 124 117 107 96 89 81 70 66 69 71 79 97 110 134 132 141 136 131 133 129 131 127 123 118 114 110 110 104 106 112 110 108 107 106 104 108 106 101 100 98
134 134 130 124 116 105 99 90 83 75 60 59 65 73 85 102 124 138 141 152 149 149 146 144 143 138 131 126 123 117 112 110 107 107 110 111 113 120 122 114 110 107 105
133 135 134 128 119 113 101 83 59 49 52 41 50 74 96 115 123 138 141 149 157 166 173 172 170 166 162 154 147 139 133 142 130 126 125 131 134 136 127 125 121 121 120
139 139 139 137 132 127 123 109 46 338 360 315 308 310 211 180 162 143 154 155 167 173 178 190 196 194 194 186 180 182 164 182 166 160 162 160 155 156 155 151 146 141 136
145 146 147 153 155 164 154 59 360 351 356 321 323 277 267 235 198 185 178 172 176 180 186 196 207 210 212 210 210 207 204 200 209 209 206 207 203 200 217 209 192 185 172
145 147 151 158 175 176 154 93 350 351 325 320 292 293 264 233 216 207 200 187 190 190 195 205 213 219 218 222 222 220 218 227 230 230 231 227 231 228 225 231 232 220 218
142 153 158 166 180 180 163 147 341 331 302 308 294 299 9 184 210 214 217 202 200 201 201 202 208 217 221 225 224 224 226 230 235 240 242 238 240 239 234 234 240 244 244
141 158 171 178 182 177 165 121 31 6 30 353 353 212 167 170 168 186 206 217 232 230 232 234 228 211 221 227 224 222 228 236 241 242 246 243 244 244 243 236 245 245 250
150 164 185 185 186 180 186 135 91 295 360 20 59 112 145 132 140 151 174 171 197 235 241 242 228 221 213 221 228 228 229 234 240 247 253 246 247 245 244 240 249 254 255
129 177 203 200 192 193 210 93 154 124 14 12 25 136 180 152 147 143 164 180 156 151 198 247 218 207 222 236 234 231 224 231 241 247 250 250 247 250 247 248 251 259 256
139 194 190 200 197 189 218 291 180 170 269 344 358 28 158 125 97 85 159 129 123 110 79 72 170 214 240 245 248 248 237 233 232 240 247 251 239 248 245 241 248 251 251
105 222 204 201 185 183 242 154 154 180 269 45 357 24 168 115 48 24 95 154 135 135 80 87 50 189 186 206 241 253 254 245 239 241 242 243 240 234 243 237 239 245 252
225 230 209 198 193 195 172 129 126 109 324 311 340 311 344 346 343 349 57 90 69 36 5 36 70 35 360 309 287 285 270 261 250 241 239 237 237 237 221 234 241 241 250
99 117 164 172 178 183 167 143 128 135 305 303 288 262 259 280 298 323 329 326 335 11 10 310 8 347 337 355 301 288 272 279 270 262 257 254 245 235 232 248 242 252 264
144 127 138 173 179 176 160 137 128 169 306 279 279 277 272 270 283 291 301 294 290 309 310 296 306 315 328 308 281 303 293 266 272 270 272 271 267 256 250 255 257 259 258
164 159 157 160 174 176 180 172 167 171 135 136 330 292 270 268 275 297 277 285 280 277 272 270 274 275 274 282 282 307 306 294 291 277 271 268 267 268 261 268 265 261 269
185 164 143 135 180 203 198 206 207 193 208 223 251 266 277 272 257 261 267 273 272 273 262 262 264 266 270 274 267 269 287 304 306 306 288 271 266 263 261 257 265 281 259
180 158 133 169 206 240 242 241 250 258 266 270 276 282 280 277 269 266 273 280 286 284 284 292 284 278 275 281 276 276 280 290 282 293 295 282 272 276 268 270 272 275 270
188 170 188 207 225 202 207 230 229 257 265 275 278 288 295 291 285 282 281 280 278 278 276 274 278 291 288 282 284 289 282 278 277 272 282 291 279 278 282 289 259 255 276
175 168 155 270 218 258 245 247 268 246 244 267 273 278 288 293 287 278 279 282 281 284 285 281 277 283 285 287 283 281 283 288 276 272 272 274 294 295 280 300 275 262 273
189 214 224 244 259 252 263 251 311 261 247 253 261 273 275 275 284 286 278 274 278 279 281 278 277 273 279 277 275 274 276 280 282 282 276 276 272 265 280 274 275 270 278